AirNav   Pilot Hours Calculator
 
 1334 users online  

W58 Cedars North Airpark
Battle Ground, Washington, USA

GOING TO BATTLE GROUND?


FAA INFORMATION EFFECTIVE 05 DECEMBER 2019

Location

FAA Identifier: W58
Lat/Long: 45-45-52.4000N 122-30-54.3000W
45-45.873333N 122-30.905000W
45.7645556,-122.5150833
(estimated)
Elevation: 275 ft. / 84 m (estimated)
Variation: 19E (1985)
From city: 1 mile NW of BATTLE GROUND, WA
Time zone: UTC -8 (UTC -7 during Daylight Saving Time)
Zip code: 98604

Airport Operations

Airport use: Open to the public
Activation date: 06/1991
Control tower: no
ARTCC: SEATTLE CENTER
FSS: SEATTLE FLIGHT SERVICE STATION
NOTAMs facility: SEA (NOTAM-D service available)
Attendance: UNATNDD
Wind indicator: yes
Segmented circle: no

Airport Communications

CTAF: 122.9
WX ASOS at VUO (10 nm SW): 135.125 (360-696-1280)
WX ASOS at PDX (11 nm S): PHONE (503) 493-7687
WX ASOS at TTD (14 nm S): 135.625 (503-492-2887)
WX ASOS at SPB (15 nm W): 135.875 (503-543-6401)

Nearby radio navigation aids

VOR radial/distance  VOR name  Freq  Var
BTGr052/3.4BATTLE GROUND VORTAC116.6021E
UBGr017/31.4NEWBERG VOR/DME117.4021E

 
NDB name  Hdg/Dist  Freq  Var  ID
BANKS054/23.735616EPND .--. -. -..
KELSO128/28.725617ELSO .-.. ... ---

Airport Services

Runway Information

Runway 8/26

Dimensions: 1960 x 50 ft. / 597 x 15 m
Surface: turf
RY EDGES MARKED WITH WHITE CONES.
RUNWAY 8  RUNWAY 26
Traffic pattern: leftleft
Obstructions: 70 ft. trees, 872 ft. from runway, 12:1 slope to clear101 ft. trees, 864 ft. from runway, 19 ft. left of centerline, 8:1 slope to clear

Airport Ownership and Management from official FAA records

Ownership: Privately-owned
Owner: CEDARS HOMEOWNERS ASSOCIATION
19506 NE 157 AVE
BATTLE GROUND, WA 98604
Phone 360-687-1208
Manager: STUART DAVIS
19506 NE 157 AVE
BATTLE GROUND, WA 98604
Phone (360) 687-8234

Airport Operational Statistics

Aircraft based on the field: 4
Single engine airplanes: 4
    
Aircraft operations: avg 24/week *
48% transient general aviation
48% local general aviation
4% military
* for 12-month period ending 31 December 2016

Additional Remarks

BIRDS ON AND INVOF ARPT.
RWY 08 5 FT FENCE POSTS, 84 FT FROM THRESHOLD.
RWY AND TAXIWAY SOFT IN WINTER.
FOR CD CTC PORTLAND APCH AT 503-493-7545.

Instrument Procedures

There are no published instrument procedures at W58.

Some nearby airports with instrument procedures:

KVUO - Pearson Field Airport (10 nm SW)
KPDX - Portland International Airport (11 nm S)
KTTD - Portland-Troutdale Airport (14 nm S)
KSPB - Scappoose Industrial Airpark (15 nm W)
KHIO - Portland-Hillsboro Airport (23 nm SW)
 
Loc | Ops | Rwys | IFR | FBO | Links
Com | Nav | Svcs | Stats | Notes
Area around W58 (Cedars North Airpark)
 
Road maps at: MapQuest Bing Google
 
Aerial photo
WARNING: Photo may not be current or correct
Aerial photo of W58 (Cedars North Airpark)
Do you have a better or more recent aerial photo of Cedars North Airpark that you would like to share? If so, please send us your photo.

 
Sectional chart

 
Airport distance calculator
Flying to Cedars North Airpark? Find the distance to fly.

From to W58

Sunrise and sunset
Times for 12-Dec-2019
 Local
(UTC-8)
 Zulu
(UTC)
Morning civil twilight07:0915:09
Sunrise07:4315:43
Sunset16:2500:25
Evening civil twilight16:5900:59

Current date and time
Zulu (UTC)  12-Dec-2019 19:22:43
Local (UTC-8)  12-Dec-2019 11:22:43
 
METAR
KVUO 
11nm SW 
121853Z AUTO 14004KT 8SM -RA FEW018 SCT023 OVC055 11/08 A2994 RMK AO2 RAE02B23 SLP139 P0002 T01060078
KPDX 
11nm S 
121853Z 00000KT 10SM BKN015 BKN047 OVC055 11/08 A2995 RMK AO2 RAE11B30E51 SLP142 P0002 T01110083
KTTD 
14nm S 
121853Z 13004KT 10SM -RA FEW020 BKN060 OVC070 09/07 A2995 RMK AO2 SLP142 P0002 T00890072
KSPB 
15nm W 
121903Z AUTO 30006KT 1 1/4SM RA BR FEW007 SCT021 OVC036 09/08 A2995 RMK AO2 P0004 T00890083
TAF
KPDX 
11nm S 
121748Z 1218/1318 18010KT P6SM -SHRA SCT015 OVC050 TEMPO 1218/1219 4SM SHRA BR SCT008 BKN015 OVC040 FM122000 22010KT P6SM -SHRA SCT025 BKN040 FM130500 21007KT 6SM -SHRA BR SCT015 BKN025 FM130900 20004KT 5SM BR VCSH FEW002 SCT015 BKN021
KTTD 
14nm S 
121748Z 1218/1318 VRB03KT P6SM -SHRA SCT015 OVC050 TEMPO 1218/1219 4SM SHRA BR SCT008 BKN015 OVC040 FM122000 22007KT P6SM -SHRA SCT025 BKN040 FM130500 24006KT 6SM -SHRA BR SCT015 BKN025 FM130900 VRB03KT 5SM BR VCSH FEW002 SCT015 BKN021
NOTAMs
Click for the latest NOTAMs
NOTAMs are issued by the DoD/FAA and will open in a separate window not controlled by AirNav.

 

 
 

Would you like to see your business listed on this page?

 If your business provides an interesting product or service to pilots, flight crews, aircraft, or users of the Cedars North Airpark, you should consider listing it here.  To start the listing process, click on the button below
 
Add a business
 

Other Pages about Cedars North Airpark

Update a link
 
Copyright © AirNav, LLC. All rights reserved. Privacy Policy  Contact